Weather History for Prestwick, United Kingdom

Change the Weather History Date:

Friday, October 5, 2012

  Actual Average Record
Temperature  
Mean Temperature 50 °F -  
Max Temperature 55 °F 53 °F 62 °F (1997)
Min Temperature 44 °F 42 °F 32 °F (1999)
Degree Days  
Heating Degree Days 16    
Moisture  
Dew Point 44 °F    
Average Humidity 80    
Maximum Humidity 93    
Minimum Humidity 67    
Precipitation  
Precipitation 0.00 in - - ()
Sea Level Pressure  
Sea Level Pressure 29.60 in    
Wind  
Wind Speed 8 mph ()    
Max Wind Speed 14 mph    
Max Gust Speed -    
Visibility 6.1 miles    
Events Rain    
Averages and records for this station are not official NWS values.
T = Trace of Precipitation, MM = Missing Value Source: Averaged Metar Reports

Daily Weather History Graph

Daily Weather History Graph

Search for Another Location

Airport:

Trip Planner

Search our weather history database for the weather conditions in past years. The results will help you decide how hot, cold, wet, or windy it might be!

Date:

Astronomy

Oct. 05, 2012 Rise Set
Actual Time 7:29 AM BST 6:42 PM BST
Civil Twilight 6:52 AM BST 7:19 PM BST
Nautical Twilight 6:10 AM BST 8:01 PM BST
Astronomical Twilight 5:26 AM BST 8:45 PM BST
Moon 9:03 PM BST (10/5) 1:16 PM BST (10/5)
Length of Visible Light 12h 26m
Length of Day
11h 13m
Waning Gibbous, 76% of the Moon is Illuminated
Oct 5
Waning Gibbous
Oct 8
Last Quarter
Oct 15
New
Oct 22
First Quarter
Oct 29
Full

Hourly Weather History & Observations

Time (BST) Temp. Windchill Dew Point Humidity Pressure Visibility Wind Dir Wind Speed Gust Speed Precip Events Conditions
12:20 AM 46.4 °F 42.9 °F 42.8 °F 87% 29.50 in 4.3 mi SSE 6.9 mph - N/A Rain Rain
12:50 AM 46.4 °F 42.4 °F 42.8 °F 87% 29.50 in 4.3 mi South 8.1 mph - N/A Rain Rain
2:50 AM 44.6 °F 42.2 °F 42.8 °F 93% 29.47 in 6.2 mi SSE 4.6 mph - N/A   Mostly Cloudy
3:50 AM 46.4 °F 45.2 °F 42.8 °F 87% 29.47 in 6.2 mi SSE 3.5 mph - N/A   Mostly Cloudy
4:50 AM 48.2 °F - 42.8 °F 82% 29.47 in 6.2 mi WSW 10.4 mph - N/A   Mostly Cloudy
5:50 AM 48.2 °F - 42.8 °F 82% 29.47 in 6.2 mi WSW 10.4 mph - N/A   Mostly Cloudy
6:20 AM 48.2 °F - 42.8 °F 82% 29.47 in 6.2 mi WSW 12.7 mph - N/A   Mostly Cloudy
6:50 AM 48.2 °F - 42.8 °F 82% 29.47 in 6.2 mi WSW 11.5 mph - N/A   Mostly Cloudy
7:20 AM 48.2 °F - 42.8 °F 82% 29.47 in 6.2 mi West 13.8 mph - N/A   Scattered Clouds
7:50 AM 48.2 °F - 42.8 °F 82% 29.47 in 6.2 mi West 12.7 mph - N/A   Scattered Clouds
8:20 AM 48.2 °F - 44.6 °F 87% 29.50 in 6.2 mi West 10.4 mph - N/A   Scattered Clouds
8:50 AM 48.2 °F - 44.6 °F 87% 29.50 in 6.2 mi West 9.2 mph - N/A   Scattered Clouds
9:20 AM 50.0 °F - 44.6 °F 82% 29.53 in 6.2 mi West 10.4 mph - N/A   Scattered Clouds
9:50 AM 50.0 °F - 44.6 °F 82% 29.53 in 6.2 mi West 11.5 mph - N/A   Scattered Clouds
10:20 AM 50.0 °F - 44.6 °F 82% 29.56 in 6.2 mi West 9.2 mph - N/A   Scattered Clouds
10:50 AM 50.0 °F - 46.4 °F 87% 29.56 in 6.2 mi West 10.4 mph - N/A   Mostly Cloudy
11:20 AM 51.8 °F - 46.4 °F 82% 29.56 in 6.2 mi West 9.2 mph - N/A   Mostly Cloudy
11:50 AM 51.8 °F - 46.4 °F 82% 29.59 in 6.2 mi West 9.2 mph - N/A   Scattered Clouds
12:20 PM 53.6 °F - 46.4 °F 77% 29.59 in 6.2 mi West 8.1 mph - N/A   Scattered Clouds
12:50 PM 53.6 °F - 44.6 °F 72% 29.59 in 6.2 mi West 6.9 mph - N/A   Scattered Clouds
1:20 PM 53.6 °F - 44.6 °F 72% 29.62 in 6.2 mi West 4.6 mph - N/A   Scattered Clouds
1:50 PM 55.4 °F - 46.4 °F 72% 29.62 in 6.2 mi West 8.1 mph - N/A   Scattered Clouds
2:20 PM 55.4 °F - 46.4 °F 72% 29.62 in 6.2 mi WSW 8.1 mph - N/A   Scattered Clouds
2:50 PM 55.4 °F - 44.6 °F 67% 29.62 in 6.2 mi WSW 8.1 mph - N/A   Scattered Clouds
3:20 PM 53.6 °F - 44.6 °F 72% 29.65 in 6.2 mi SW 8.1 mph - N/A   Scattered Clouds
3:50 PM 55.4 °F - 46.4 °F 72% 29.65 in 6.2 mi WSW 6.9 mph - N/A   Scattered Clouds
4:20 PM 53.6 °F - 44.6 °F 72% 29.65 in 6.2 mi West 6.9 mph - N/A   Scattered Clouds
4:50 PM 53.6 °F - 46.4 °F 77% 29.65 in 6.2 mi WSW 11.5 mph - N/A   Scattered Clouds
5:20 PM 53.6 °F - 46.4 °F 77% 29.68 in 6.2 mi West 12.7 mph - N/A   Scattered Clouds
5:50 PM 51.8 °F - 44.6 °F 76% 29.68 in 6.2 mi West 9.2 mph - N/A   Scattered Clouds
6:20 PM 51.8 °F - 44.6 °F 76% 29.68 in 6.2 mi West 10.4 mph - N/A   Scattered Clouds
6:50 PM 51.8 °F - 44.6 °F 76% 29.68 in 6.2 mi West 9.2 mph - N/A   Scattered Clouds
7:20 PM 51.8 °F - 44.6 °F 76% 29.71 in 6.2 mi West 10.4 mph - N/A   Scattered Clouds
7:50 PM 51.8 °F - 44.6 °F 76% 29.71 in 6.2 mi West 6.9 mph - N/A   Scattered Clouds
8:20 PM 50.0 °F - 44.6 °F 82% 29.71 in 6.2 mi West 5.8 mph - N/A   Scattered Clouds
8:50 PM 50.0 °F - 44.6 °F 82% 29.71 in 6.2 mi West 8.1 mph - N/A   Scattered Clouds
9:20 PM 50.0 °F - 42.8 °F 76% 29.71 in 6.2 mi West 6.9 mph - N/A   Scattered Clouds
9:50 PM 50.0 °F - 44.6 °F 82% 29.71 in 6.2 mi West 11.5 mph - N/A   Scattered Clouds
10:20 PM 48.2 °F - 42.8 °F 82% 29.74 in 6.2 mi WSW 5.8 mph - N/A   Scattered Clouds
10:50 PM 48.2 °F - 42.8 °F 82% 29.74 in 6.2 mi Calm Calm - N/A   Partly Cloudy
11:20 PM 46.4 °F - 42.8 °F 87% 29.74 in 6.2 mi SW 2.3 mph - N/A   Partly Cloudy
11:50 PM 48.2 °F - 42.8 °F 82% 29.74 in 6.2 mi WSW 6.9 mph - N/A   Partly Cloudy